sat.trackr.live / text

‹ back to catalog

STARLINK-36285

NORAD 68530 · 2026-068Y

PAYLOAD ACTIVE UNKNOWN

§ Identity

Operator
Country
US
Launch date
2026-03-30
Launch site
AFETR
Launch vehicle
Mass (kg)
RCS (m²)

Purposes: comms

External: N2YO · Heavens-Above · Gunter

§ Orbital elements

Epoch: 2026-09-20T03:29:19.912704Z

Period
93.84 min
Inclination
53.1580°
Eccentricity
0.0001290
Mean motion
15.34465807 rev/d
Perigee alt
461.6 km
Apogee alt
463.4 km
Semi-major
6,840.6 km
B*
1.1218e-3
RAAN
303.4341°
Arg perigee
85.4718°
Mean anomaly
274.6431°
Rev number
2,675

§ Raw data

STARLINK-362851 68530U 26068Y   26263.14536936  .00037796  00000+0  11218-2 0  99962 68530  53.1580 303.4341 0001290  85.4718 274.6431 15.34465807 26759

JSON: /api/v1/satellites/68530 · /tle

For live sub-satellite position, see the globe view (requires WebGL).

§ Visibility from observer

Set your observer location to see the next 7 days of passes ≥ 10°. The values pass through the URL so the page stays shareable.

No JS? Fill the form by hand. The geolocation button needs JavaScript.